Time,TemperatureF,DewpointF,PressureIn,WindDirection,WindDirectionDegrees,WindSpeedMPH,WindSpeedGustMPH,Humidity,HourlyPrecipIn,Conditions,Clouds,dailyrainin,SolarRadiationWatts/m^2,SoftwareType,DateUTC
2013-09-24 00:05:00,60.6,55.0,29.93,WNW,288,0.0,0.0,83,0.00,,,0.00,0,weatherlink.com 1.10,2013-09-24 07:05:00,
2013-09-24 00:20:00,60.4,55.0,29.93,WNW,288,0.0,0.0,83,0.00,,,0.00,0,weatherlink.com 1.10,2013-09-24 07:20:00,
2013-09-24 00:35:00,60.1,55.0,29.93,WNW,288,0.0,0.0,83,0.00,,,0.00,0,weatherlink.com 1.10,2013-09-24 07:35:00,
2013-09-24 00:50:00,59.9,55.0,29.93,WNW,288,0.0,0.0,84,0.00,,,0.00,0,weatherlink.com 1.10,2013-09-24 07:50:00,
2013-09-24 01:05:00,59.8,55.0,29.93,WNW,288,0.0,0.0,85,0.00,,,0.00,0,weatherlink.com 1.10,2013-09-24 08:05:00,
2013-09-24 01:20:00,59.8,56.0,29.94,WNW,288,0.0,1.0,86,0.00,,,0.00,0,weatherlink.com 1.10,2013-09-24 08:20:00,
2013-09-24 01:35:00,59.8,56.0,29.93,WNW,288,0.0,0.0,87,0.00,,,0.00,0,weatherlink.com 1.10,2013-09-24 08:35:00,
2013-09-24 01:50:00,59.5,56.0,29.93,WNW,288,0.0,0.0,88,0.00,,,0.00,0,weatherlink.com 1.10,2013-09-24 08:50:00,
2013-09-24 02:05:00,59.2,56.0,29.93,WNW,288,0.0,0.0,89,0.00,,,0.00,0,weatherlink.com 1.10,2013-09-24 09:05:00,
2013-09-24 02:20:00,59.0,56.0,29.93,WNW,288,0.0,1.0,89,0.00,,,0.00,0,weatherlink.com 1.10,2013-09-24 09:20:00,
2013-09-24 02:35:00,58.7,56.0,29.93,WNW,288,0.0,0.0,89,0.00,,,0.00,0,weatherlink.com 1.10,2013-09-24 09:35:00,
2013-09-24 02:50:00,58.5,56.0,29.93,WNW,288,0.0,0.0,90,0.00,,,0.00,0,weatherlink.com 1.10,2013-09-24 09:50:00,
2013-09-24 03:05:00,58.3,56.0,29.92,WNW,288,0.0,0.0,90,0.00,,,0.00,0,weatherlink.com 1.10,2013-09-24 10:05:00,
2013-09-24 03:20:00,58.1,55.0,29.92,WNW,288,0.0,0.0,90,0.00,,,0.00,0,weatherlink.com 1.10,2013-09-24 10:20:00,
2013-09-24 03:35:00,57.8,55.0,29.93,WNW,288,0.0,0.0,91,0.00,,,0.00,0,weatherlink.com 1.10,2013-09-24 10:35:00,
2013-09-24 03:50:00,57.6,55.0,29.92,WNW,288,0.0,0.0,91,0.00,,,0.00,0,weatherlink.com 1.10,2013-09-24 10:50:00,
2013-09-24 04:05:00,57.5,55.0,29.92,WNW,288,0.0,0.0,91,0.00,,,0.00,0,weatherlink.com 1.10,2013-09-24 11:05:00,
2013-09-24 04:20:00,57.4,55.0,29.92,WNW,288,0.0,0.0,91,0.00,,,0.00,0,weatherlink.com 1.10,2013-09-24 11:20:00,
2013-09-24 04:35:00,57.2,55.0,29.92,WNW,288,0.0,1.0,91,0.00,,,0.00,0,weatherlink.com 1.10,2013-09-24 11:35:00,
2013-09-24 04:50:00,57.0,55.0,29.92,WNW,288,0.0,0.0,91,0.00,,,0.00,0,weatherlink.com 1.10,2013-09-24 11:50:00,
2013-09-24 05:05:00,56.8,54.0,29.93,WNW,288,0.0,0.0,91,0.00,,,0.00,0,weatherlink.com 1.10,2013-09-24 12:05:00,
2013-09-24 05:20:00,56.8,55.0,29.93,WNW,288,0.0,0.0,92,0.00,,,0.00,0,weatherlink.com 1.10,2013-09-24 12:20:00,
2013-09-24 05:35:00,56.7,55.0,29.92,WNW,288,0.0,0.0,92,0.00,,,0.00,0,weatherlink.com 1.10,2013-09-24 12:35:00,
2013-09-24 05:50:00,56.8,54.0,29.93,WNW,288,0.0,0.0,91,0.00,,,0.00,0,weatherlink.com 1.10,2013-09-24 12:50:00,
2013-09-24 06:05:00,56.9,54.0,29.93,WNW,288,0.0,0.0,91,0.00,,,0.00,0,weatherlink.com 1.10,2013-09-24 13:05:00,
2013-09-24 06:20:00,56.8,54.0,29.94,WNW,288,0.0,0.0,90,0.00,,,0.00,0,weatherlink.com 1.10,2013-09-24 13:20:00,
2013-09-24 06:35:00,56.8,54.0,29.94,WNW,288,0.0,0.0,90,0.00,,,0.00,0,weatherlink.com 1.10,2013-09-24 13:35:00,
2013-09-24 06:50:00,56.8,54.0,29.94,WNW,288,0.0,0.0,90,0.00,,,0.00,0,weatherlink.com 1.10,2013-09-24 13:50:00,
2013-09-24 07:05:00,56.8,54.0,29.95,WNW,288,0.0,0.0,90,0.00,,,0.00,0,weatherlink.com 1.10,2013-09-24 14:05:00,
2013-09-24 07:20:00,56.8,54.0,29.95,WNW,288,0.0,0.0,91,0.00,,,0.00,21,weatherlink.com 1.10,2013-09-24 14:20:00,
2013-09-24 07:29:00,56.8,54.2,29.95,WNW,288,0.0,0.0,91,0.00,,,0.00,40,Wunderground v.1.15,2013-09-24 14:29:00,
2013-09-24 07:36:00,57.0,54.4,29.95,WNW,288,0.0,0.0,91,0.00,,,0.00,47,Wunderground v.1.15,2013-09-24 14:36:00,
2013-09-24 07:42:00,57.2,54.6,29.95,WNW,288,0.0,0.0,91,0.00,,,0.00,60,Wunderground v.1.15,2013-09-24 14:42:00,
2013-09-24 07:48:00,57.5,55.2,29.95,WNW,288,0.0,0.0,92,0.00,,,0.00,67,Wunderground v.1.15,2013-09-24 14:48:00,
2013-09-24 08:06:00,58.8,56.0,29.95,WNW,286,0.0,2.0,90,0.00,,,0.00,63,weatherlink.com 1.10,2013-09-24 15:06:00,
2013-09-24 08:21:00,59.9,56.0,29.95,WNW,286,0.0,2.0,87,0.00,,,0.00,102,weatherlink.com 1.10,2013-09-24 15:21:00,
2013-09-24 08:36:00,60.8,56.0,29.95,West,281,1.0,3.0,84,0.00,,,0.00,109,weatherlink.com 1.10,2013-09-24 15:36:00,
2013-09-24 08:51:00,61.7,56.0,29.95,West,269,0.0,5.0,80,0.00,,,0.00,160,weatherlink.com 1.10,2013-09-24 15:51:00,
2013-09-24 09:06:00,62.4,56.0,29.95,West,270,0.0,3.0,79,0.00,,,0.00,109,weatherlink.com 1.10,2013-09-24 16:06:00,
2013-09-24 09:36:00,62.9,55.0,29.96,West,270,1.0,2.0,76,0.00,,,0.00,88,weatherlink.com 1.10,2013-09-24 16:36:00,
2013-09-24 09:51:00,64.5,55.0,29.97,West,269,2.0,3.0,72,0.00,,,0.00,531,weatherlink.com 1.10,2013-09-24 16:51:00,
2013-09-24 10:06:00,65.7,55.0,29.97,West,263,2.0,5.0,68,0.00,,,0.00,575,weatherlink.com 1.10,2013-09-24 17:06:00,
2013-09-24 10:21:00,65.7,52.0,29.97,WSW,254,0.0,7.0,62,0.00,,,0.00,615,weatherlink.com 1.10,2013-09-24 17:21:00,
2013-09-24 10:36:00,66.0,52.0,29.97,West,272,3.0,7.0,60,0.00,,,0.00,647,weatherlink.com 1.10,2013-09-24 17:36:00,
2013-09-24 10:51:00,67.5,52.0,29.97,West,275,6.0,8.0,57,0.00,,,0.00,679,weatherlink.com 1.10,2013-09-24 17:51:00,
2013-09-24 11:06:00,67.9,50.0,29.97,WNW,284,4.0,8.0,54,0.00,,,0.00,703,weatherlink.com 1.10,2013-09-24 18:06:00,
2013-09-24 11:21:00,68.6,51.0,29.96,WNW,286,1.0,6.0,54,0.00,,,0.00,729,weatherlink.com 1.10,2013-09-24 18:21:00,
2013-09-24 11:36:00,68.5,51.0,29.97,West,273,3.0,9.0,54,0.00,,,0.00,751,weatherlink.com 1.10,2013-09-24 18:36:00,
2013-09-24 11:51:00,70.1,52.0,29.96,West,266,1.0,4.0,53,0.00,,,0.00,763,weatherlink.com 1.10,2013-09-24 18:51:00,
2013-09-24 12:06:00,69.0,52.0,29.96,WNW,283,2.0,4.0,54,0.00,,,0.00,780,weatherlink.com 1.10,2013-09-24 19:06:00,
2013-09-24 12:21:00,70.6,54.0,29.96,WNW,297,1.0,6.0,55,0.00,,,0.00,172,weatherlink.com 1.10,2013-09-24 19:21:00,
2013-09-24 12:36:00,69.1,52.0,29.96,West,267,3.0,4.0,54,0.00,,,0.00,283,weatherlink.com 1.10,2013-09-24 19:36:00,
2013-09-24 12:51:00,69.0,52.0,29.96,WSW,237,0.0,6.0,56,0.00,,,0.00,158,weatherlink.com 1.10,2013-09-24 19:51:00,
2013-09-24 13:06:00,69.6,53.0,29.95,West,278,2.0,4.0,56,0.00,,,0.00,62,weatherlink.com 1.10,2013-09-24 20:06:00,
2013-09-24 13:21:00,70.3,53.0,29.94,West,277,6.0,8.0,54,0.00,,,0.00,149,weatherlink.com 1.10,2013-09-24 20:21:00,
2013-09-24 13:36:00,70.4,52.0,29.93,NNW,348,5.0,5.0,53,0.00,,,0.00,54,weatherlink.com 1.10,2013-09-24 20:36:00,
2013-09-24 13:52:00,70.8,52.0,29.93,West,276,2.0,8.0,51,0.00,,,0.00,239,weatherlink.com 1.10,2013-09-24 20:52:00,
2013-09-24 14:07:00,71.1,52.0,29.92,WNW,300,0.0,4.0,51,0.00,,,0.00,246,weatherlink.com 1.10,2013-09-24 21:07:00,
2013-09-24 14:22:00,71.6,52.0,29.91,WSW,253,2.0,4.0,51,0.00,,,0.00,54,weatherlink.com 1.10,2013-09-24 21:22:00,
2013-09-24 14:37:00,71.3,53.0,29.91,West,278,0.0,5.0,53,0.00,,,0.00,33,weatherlink.com 1.10,2013-09-24 21:37:00,
2013-09-24 14:52:00,71.2,55.0,29.91,West,271,0.0,5.0,56,0.00,,,0.00,32,weatherlink.com 1.10,2013-09-24 21:52:00,
2013-09-24 15:07:00,71.0,54.0,29.91,WNW,287,4.0,7.0,56,0.00,,,0.00,47,weatherlink.com 1.10,2013-09-24 22:07:00,
2013-09-24 15:22:00,70.1,55.0,29.91,SW,232,0.0,5.0,59,0.00,,,0.00,30,weatherlink.com 1.10,2013-09-24 22:22:00,
2013-09-24 15:37:00,69.6,55.0,29.91,West,275,2.0,5.0,61,0.00,,,0.00,28,weatherlink.com 1.10,2013-09-24 22:37:00,
2013-09-24 15:52:00,68.9,55.0,29.91,WSW,253,0.0,4.0,62,0.00,,,0.00,26,weatherlink.com 1.10,2013-09-24 22:52:00,
2013-09-24 16:07:00,68.7,56.0,29.91,West,280,5.0,6.0,64,0.00,,,0.00,25,weatherlink.com 1.10,2013-09-24 23:07:00,
2013-09-24 16:22:00,68.8,55.0,29.90,West,267,4.0,9.0,62,0.00,,,0.00,23,weatherlink.com 1.10,2013-09-24 23:22:00,
2013-09-24 16:37:00,68.2,55.0,29.90,WSW,258,3.0,8.0,62,0.00,,,0.00,23,weatherlink.com 1.10,2013-09-24 23:37:00,
2013-09-24 16:52:00,67.7,55.0,29.90,West,261,3.0,9.0,64,0.00,,,0.00,33,weatherlink.com 1.10,2013-09-24 23:52:00,
2013-09-24 17:07:00,67.7,54.0,29.90,WNW,289,3.0,9.0,61,0.00,,,0.00,156,weatherlink.com 1.10,2013-09-25 00:07:00,
2013-09-24 17:22:00,67.2,52.0,29.90,West,274,3.0,13.0,59,0.00,,,0.00,19,weatherlink.com 1.10,2013-09-25 00:22:00,
2013-09-24 17:37:00,66.3,52.0,29.90,WNW,287,8.0,11.0,60,0.00,,,0.00,21,weatherlink.com 1.10,2013-09-25 00:37:00,
2013-09-24 17:52:00,65.5,51.0,29.90,WNW,283,0.0,11.0,60,0.00,,,0.00,14,weatherlink.com 1.10,2013-09-25 00:52:00,
2013-09-24 18:07:00,65.0,51.0,29.89,West,263,11.0,14.0,61,0.00,,,0.00,12,weatherlink.com 1.10,2013-09-25 01:07:00,
2013-09-24 18:22:00,64.3,51.0,29.89,West,277,0.0,7.0,63,0.00,,,0.00,11,weatherlink.com 1.10,2013-09-25 01:22:00,
2013-09-24 18:37:00,63.6,52.0,29.89,West,265,5.0,9.0,65,0.00,,,0.00,7,weatherlink.com 1.10,2013-09-25 01:37:00,
2013-09-24 18:52:00,62.7,52.0,29.89,West,274,6.0,9.0,67,0.00,,,0.00,0,weatherlink.com 1.10,2013-09-25 01:52:00,
2013-09-24 19:07:00,61.8,51.0,29.89,West,277,1.0,6.0,68,0.00,,,0.00,0,weatherlink.com 1.10,2013-09-25 02:07:00,
2013-09-24 19:22:00,61.1,51.0,29.89,WSW,253,3.0,6.0,70,0.00,,,0.00,0,weatherlink.com 1.10,2013-09-25 02:22:00,
2013-09-24 19:37:00,60.7,51.0,29.88,West,263,0.0,5.0,71,0.00,,,0.00,0,weatherlink.com 1.10,2013-09-25 02:37:00,
2013-09-24 19:52:00,60.3,51.0,29.88,West,271,0.0,10.0,71,0.00,,,0.00,0,weatherlink.com 1.10,2013-09-25 02:52:00,
2013-09-24 20:22:00,59.8,51.0,29.88,West,270,8.0,9.0,72,0.00,,,0.00,0,weatherlink.com 1.10,2013-09-25 03:22:00,
2013-09-24 20:37:00,59.7,51.0,29.89,WNW,296,6.0,8.0,72,0.00,,,0.00,0,weatherlink.com 1.10,2013-09-25 03:37:00,
2013-09-24 20:52:00,59.6,50.0,29.89,West,262,2.0,7.0,71,0.00,,,0.00,0,weatherlink.com 1.10,2013-09-25 03:52:00,
2013-09-24 21:07:00,59.3,50.0,29.89,West,278,3.0,6.0,72,0.00,,,0.00,0,weatherlink.com 1.10,2013-09-25 04:07:00,
2013-09-24 21:22:00,59.0,50.0,29.90,West,265,2.0,6.0,72,0.00,,,0.00,0,weatherlink.com 1.10,2013-09-25 04:22:00,
2013-09-24 21:37:00,58.9,50.0,29.90,West,275,3.0,6.0,72,0.00,,,0.00,0,weatherlink.com 1.10,2013-09-25 04:37:00,
2013-09-24 21:52:00,58.6,49.0,29.89,West,275,0.0,3.0,71,0.00,,,0.00,0,weatherlink.com 1.10,2013-09-25 04:52:00,
2013-09-24 22:07:00,58.4,49.0,29.90,West,279,1.0,3.0,70,0.00,,,0.00,0,weatherlink.com 1.10,2013-09-25 05:07:00,
2013-09-24 22:22:00,58.2,48.0,29.90,West,271,0.0,4.0,70,0.00,,,0.00,0,weatherlink.com 1.10,2013-09-25 05:22:00,
2013-09-24 22:37:00,58.2,49.0,29.90,West,271,1.0,4.0,71,0.00,,,0.00,0,weatherlink.com 1.10,2013-09-25 05:37:00,
2013-09-24 22:52:00,58.0,49.0,29.90,WNW,288,3.0,6.0,72,0.00,,,0.00,0,weatherlink.com 1.10,2013-09-25 05:52:00,
2013-09-24 23:07:00,57.9,49.0,29.90,West,264,2.0,7.0,73,0.00,,,0.00,0,weatherlink.com 1.10,2013-09-25 06:07:00,
2013-09-24 23:22:00,57.8,49.0,29.90,WNW,296,4.0,7.0,73,0.00,,,0.00,0,weatherlink.com 1.10,2013-09-25 06:22:00,
2013-09-24 23:37:00,57.7,49.0,29.90,WNW,293,4.0,9.0,72,0.00,,,0.00,0,weatherlink.com 1.10,2013-09-25 06:37:00,
2013-09-24 23:52:00,57.5,49.0,29.91,West,270,1.0,5.0,72,0.00,,,0.00,0,weatherlink.com 1.10,2013-09-25 06:52:00,